| time (UTC) | temp F | wind direction | speed MPH | gust MPH | rain 1hr in | rain 24hr in | rain mn in | humidity % | barometer mb |
| 20260505024559 | 71 | 74 | 3.0 | 9.0 | 0.00 | 0.00 | 0.00 | 27 | 1001.9 |
| 20260505023119 | 72 | 74 | 4.0 | 9.0 | 0.00 | 0.00 | 0.00 | 27 | 1001.6 |
| 20260505021558 | 72 | 70 | 5.0 | 11.0 | 0.00 | 0.00 | 0.00 | 25 | 1001.4 |
| 20260505020058 | 74 | 104 | 4.0 | 11.0 | 0.00 | 0.00 | 0.00 | 24 | 1001.3 |
| 20260505014604 | 75 | 68 | 4.0 | 13.0 | 0.00 | 0.00 | 0.00 | 23 | 1001.2 |
| 20260505013109 | 76 | 57 | 4.0 | 11.0 | 0.00 | 0.00 | 0.00 | 22 | 1001.1 |
| 20260505011557 | 77 | 75 | 4.0 | 9.0 | 0.00 | 0.00 | 0.00 | 21 | 1001.0 |
| 20260505004559 | 79 | 70 | 2.0 | 4.0 | 0.00 | 0.00 | 0.00 | 20 | 1000.9 |
| 20260505003057 | 79 | 60 | 1.0 | 4.0 | 0.00 | 0.00 | 0.00 | 20 | 1001.0 |
| 20260505001600 | 80 | 0 | 1.0 | 7.0 | 0.00 | 0.00 | 0.00 | 19 | 1001.1 |
| 20260505000115 | 80 | 0 | 1.0 | 4.0 | 0.00 | 0.00 | 0.00 | 19 | 1001.3 |
| 20260504234558 | 81 | 35 | 1.0 | 5.0 | 0.00 | 0.00 | 0.00 | 19 | 1001.2 |
| 20260504233100 | 81 | 72 | 3.0 | 8.0 | 0.00 | 0.00 | 0.00 | 18 | 1001.3 |
| 20260504231557 | 81 | 55 | 4.0 | 9.0 | 0.00 | 0.00 | 0.00 | 19 | 1001.4 |
| 20260504230106 | 81 | 92 | 4.0 | 10.0 | 0.00 | 0.00 | 0.00 | 19 | 1001.6 |
| 20260504224556 | 81 | 79 | 3.0 | 8.0 | 0.00 | 0.00 | 0.00 | 18 | 1001.9 |
| 20260504223104 | 81 | 50 | 3.0 | 9.0 | 0.00 | 0.00 | 0.00 | 18 | 1001.7 |
| 20260504221603 | 81 | 68 | 3.0 | 9.0 | 0.00 | 0.00 | 0.00 | 17 | 1001.9 |
| 20260504220059 | 81 | 54 | 2.0 | 8.0 | 0.00 | 0.00 | 0.00 | 19 | 1002.0 |
| 20260504214558 | 81 | 73 | 1.0 | 13.0 | 0.00 | 0.00 | 0.00 | 18 | 1002.1 |
| 20260504213105 | 82 | 54 | 2.0 | 8.0 | 0.00 | 0.00 | 0.00 | 17 | 1002.0 |
| 20260504211605 | 81 | 62 | 3.0 | 12.0 | 0.00 | 0.00 | 0.00 | 17 | 1002.2 |
| 20260504210058 | 81 | 40 | 3.0 | 9.0 | 0.00 | 0.00 | 0.00 | 20 | 1002.3 |
| 20260504204601 | 82 | 72 | 6.0 | 12.0 | 0.00 | 0.00 | 0.00 | 20 | 1002.5 |
| 20260504203106 | 84 | 33 | 4.0 | 12.0 | 0.00 | 0.00 | 0.00 | 19 | 1002.2 |
| 20260504201554 | 87 | 337 | 1.0 | 5.0 | 0.00 | 0.00 | 0.00 | 12 | 1002.6 |
| 20260504200059 | 88 | 199 | 2.0 | 6.0 | 0.00 | 0.00 | 0.00 | 12 | 1002.8 |
| 20260504194559 | 89 | 117 | 1.0 | 5.0 | 0.00 | 0.00 | 0.00 | 12 | 1002.9 |
| 20260504193056 | 89 | 222 | 5.0 | 11.0 | 0.00 | 0.00 | 0.00 | 12 | 1003.1 |
| 20260504191607 | 90 | 184 | 2.0 | 6.0 | 0.00 | 0.00 | 0.00 | 12 | 1003.3 |
| 20260504190117 | 89 | 203 | 4.0 | 9.0 | 0.00 | 0.00 | 0.00 | 12 | 1003.6 |
| 20260504184555 | 89 | 168 | 3.0 | 6.0 | 0.00 | 0.00 | 0.00 | 12 | 1003.8 |
| 20260504183059 | 89 | 208 | 0.0 | 9.0 | 0.00 | 0.00 | 0.00 | 13 | 1003.8 |
| 20260504181558 | 88 | 335 | 1.0 | 4.0 | 0.00 | 0.00 | 0.00 | 14 | 1004.1 |
| 20260504174556 | 85 | 255 | 3.0 | 10.0 | 0.00 | 0.00 | 0.00 | 16 | 1004.7 |
| 20260504173057 | 84 | 212 | 4.0 | 6.0 | 0.00 | 0.00 | 0.00 | 17 | 1004.9 |
| 20260504171555 | 83 | 239 | 2.0 | 7.0 | 0.00 | 0.00 | 0.00 | 17 | 1005.1 |
| 20260504140108 | 56 | 240 | 2.0 | 5.0 | 0.00 | 0.00 | 0.00 | 53 | 1005.8 |
| 20260504130109 | 46 | 267 | 0.0 | 3.0 | 0.00 | 0.00 | 0.00 | 68 | 1005.4 |
| 20260504081555 | 55 | 0 | 0.0 | 3.0 | 0.00 | 0.00 | 0.00 | 48 | 1005.7 |
| 20260504060103 | 60 | 0 | 0.0 | 3.0 | 0.00 | 0.00 | 0.00 | 38 | 1006.4 |
| 20260504050108 | 63 | 0 | 0.0 | 1.0 | 0.00 | 0.00 | 0.00 | 38 | 1006.5 |
| 20260504044602 | 64 | 0 | 0.0 | 3.0 | 0.00 | 0.00 | 0.00 | 35 | 1006.8 |
| 20260504043059 | 65 | 0 | 0.0 | 2.0 | 0.00 | 0.00 | 0.00 | 33 | 1006.9 |
| 20260504041600 | 65 | 106 | 0.0 | 3.0 | 0.00 | 0.00 | 0.00 | 32 | 1007.0 |
| 20260504034557 | 66 | 105 | 0.0 | 3.0 | 0.00 | 0.00 | 0.00 | 29 | 1007.4 |
| 20260504033053 | 67 | 71 | 0.0 | 3.0 | 0.00 | 0.00 | 0.00 | 27 | 1007.3 |
| 20260504031555 | 67 | 64 | 1.0 | 6.0 | 0.00 | 0.00 | 0.00 | 27 | 1007.2 |
| 20260504030055 | 68 | 63 | 2.0 | 6.0 | 0.00 | 0.00 | 0.00 | 26 | 1007.1 |